Aérodrome :
LOGIN :

S'inscrire | Disclaimer

   EN    FR    IT 

 










Légende :    VFR   VFR Marginal   IFR   IFR Intensif   IFR Très Intensif
Visi : 
Plafond : 
>= 8 km
>= 3000ft
5 à 8 km
1000 à 3000 ft
1500m à 5 km
500 à 1000 ft
800 à 1500m
200 à 500 ft
< 800m
< 200 ft
Symboles :   Orages  Brouillard  Fortes neiges  Fortes précipitations  Vent > 20 kt
SIGMETs :   Divers  Orages  Givrage  Turbulence  Onde Orograph.  Cendres Volcan.







- Altitude de l'aérodrome : 863 ft
- Code IATA : ZAZ


LEZG - Zaragoza Aragon

DERNIER METAR :
  • 240930Z 36003KT 260V060 CAVOK 24/12 Q1021

METARs EXPIRÉS :
  • 240900Z 33003KT CAVOK 23/11 Q1021
  • 240830Z 33004KT 260V050 CAVOK 22/12 Q1021
  • 240800Z 33004KT 250V040 CAVOK 21/12 Q1021
  • 240730Z 31005KT 280V350 CAVOK 21/12 Q1021
  • 240700Z 30006KT 280V340 CAVOK 20/11 Q1022

TAF TAF LEZG
Valide du 24 à 06h jusqu'au 25 à 06h UTC


240500Z 2406/2506 31007KT 9999 FEW050 TX31/2412Z TN16/2406Z
BECMG 2410/2412 10008KT
Pas de NOTAMs connus pour ce terrain.



MET'MAP, la Météo Aéronautique d'un coup d'oeil ! - Copyright ORBIFLY Décembre 2007 - Disclaimer

ORBIFLY MET'MAP TEAM :

Programmation & Développement : Alexandra Zaïnal
Conception & Développement : Baudouin d'Aumeries
Co-Programmation & Développement : Marc-Olivier Méhu
Soutien technique & logistique : Manuel Goepfert

Contact : metmap@orbifly.com




SOURCES & CREDITS :

   NOAA